Regional Weather Roundup
Issued by NWS State College, PA

Home | Current Version | Previous Version | Graphics & Text | Print | Product List | Glossary Off
Versions: 1 2 3 4 5 6 7 8 9 10 11 12 13 14 15 16 17 18 19 20 21 22 23 24 25 26 27 28 29 30 31 32 33 34 35 36 37 38 39 40 41 42 43 44 45 46 47 48 49 50

773
ASUS41 KCTP 191510
RWRCTP

REGIONAL WEATHER ROUNDUP
NATIONAL WEATHER SERVICE STATE COLLEGE PA
1100 AM EDT THU APR 19 2018

Note: "fair" indicates few or no clouds below 12,000 feet with no
significant weather and/or obstructions to visibility.

* = STATION THAT DOES NOT REPORT PRECIPITATION /E.G. RAIN...SNOW...ETC/
    THUNDER OR FOG.

PAZ002>004-007>009-013>016-020>023-029>032-191600-
WESTERN PENNSYLVANIA

CITY           SKY/WX    TMP DP  RH WIND       PRES   REMARKS
ERIE           CLOUDY    34  24  67 NW12G21   29.97R
MEADVILLE      FLURRIES  31  26  82 N9        29.93R
FRANKLIN*      FLURRIES  30  25  81 VRB6G18   29.92R
NEW CASTLE     CLOUDY    34  30  85 NW12G18   29.98R
BEAVER COUNTY  CLOUDY    32  30  93 NW16G22   29.96R
BUTLER*        FLURRIES  33  30  88 W8        29.94R
PITTSBURGH INT FLURRIES  35  32  88 NW17G26   29.95R
PITTSBURGH     LGT SNOW  34  31  88 NW16G29   29.93R FOG
INDIANA*       CLOUDY    32  32 100 NW10G20   29.92R FOG
LATROBE        SNOW      32  32 100 NW12      29.92R VSB 1/2
WASHINGTON CO* LGT RAIN  36  32  85 NW13G18   29.99R
$$

PAZ004>006-010>012-017>019-024>028-033>037-041-042-045-046-049>053-191600-
CENTRAL PENNSYLVANIA

CITY           SKY/WX    TMP DP  RH WIND       PRES   REMARKS
BRADFORD       CLOUDY    30  25  81 NW17      29.81R
DUBOIS         LGT SNOW  31  29  92 NW13      29.83R VSB 1
CLEARFIELD     FLURRIES  36  32  85 NW17G24   29.83R
JOHNSTOWN      SNOW      31  28  89 NW15G25   29.81R VSB 1/2
ALTOONA        CLOUDY    40  33  76 NW17G23   29.81R
STATE COLLEGE  LGT RAIN  36  34  93 NW8       29.79R
WILLIAMSPORT   LGT RAIN  38  34  85 W9        29.79R
SELINSGROVE    LGT RAIN  39  35  86 N8        29.79R
FT INDIANTOWN  DRIZZLE   42  42 100 NW6       29.74R
CAPITAL CITY   CLOUDY    44  38  79 NW12      29.76R
HARRISBURG     CLOUDY    44  38  79 NW10      29.75R
YORK           LGT RAIN  46  43  89 NW5       29.74R FOG
$$

PAZ038>040-043-044-047-048-054-055-060>062-067>071-191600-
EASTERN PENNSYLVANIA

CITY           SKY/WX    TMP DP  RH WIND       PRES   REMARKS
SCRANTON       LGT SNOW  35  33  92 N9        29.73S FOG
MOUNT POCONO   CLOUDY    33  32  96 N7        29.68R
ALLENTOWN      CLOUDY    43  34  70 N6        29.73R
QUAKERTOWN*    CLOUDY    41  37  87 N6        29.72S
READING        CLOUDY    44  42  93 N6        29.72R
LANCASTER      CLOUDY    47  42  83 NW6       29.73R
COATESVILLE    CLOUDY    46  39  76 NW3       29.72R
POTTSTOWN      CLOUDY    43  38  82 N7        29.74R
BLUE BELL      CLOUDY    43  39  87 N5        29.73S
DOYLESTOWN     CLOUDY    43  39  86 N7        29.70F
WILLOW GROVE   NOT AVBL
NORTH PHILA    CLOUDY    48  40  73 N10       29.73R
PHILADELPHIA   CLOUDY    48  40  73 N5        29.72R
$$




USA.gov is the U.S. government's official web portal to all federal, state and local government web resources and services.